Weather History for KPRB - April, 2013

Change the Weather History Date:

Wednesday, April 17, 2013

  Actual Average Record
Temperature  
Mean Temperature 55 °F 57 °F  
Max Temperature 73 °F 73 °F 95 °F (1954)
Min Temperature 36 °F 41 °F 31 °F (1968)
Degree Days  
Heating Degree Days 10 8  
Month to date heating degree days 73 163  
Since 1 July heating degree days 2322 2622  
Cooling Degree Days 0 0  
Month to date cooling degree days 1 0  
Year to date cooling degree days 1 0  
Growing Degree Days 4 (Base 50)    
Moisture  
Dew Point 26 °F    
Average Humidity 44    
Maximum Humidity 76    
Minimum Humidity 12    
Precipitation  
Precipitation 0.00 in 0.02 in 1.13 in (2000)
Month to date precipitation 0.01 0.46  
Year to date precipitation 1.41 8.29  
Since 1 July precipitation 4.62  
Sea Level Pressure  
Sea Level Pressure 30.14 in    
Wind  
Wind Speed 10 mph (NNW)    
Max Wind Speed 20 mph    
Max Gust Speed 26 mph    
Visibility 10 miles    
Events      
T = Trace of Precipitation, MM = Missing Value Source: NWS Daily Summary

Daily Weather History Graph

Daily Weather History Graph

Search for Another Location

Airport or City:

Trip Planner

Search our weather history database for the weather conditions in past years. The results will help you decide how hot, cold, wet, or windy it might be!

Date:

Astronomy

Apr. 17, 2013 Rise Set
Actual Time 6:26 AM PDT 7:37 PM PDT
Civil Twilight 6:00 AM PDT 8:04 PM PDT
Nautical Twilight 5:28 AM PDT 8:35 PM PDT
Astronomical Twilight 4:56 AM PDT 9:08 PM PDT
Moon 11:49 AM PDT (4/17) 1:14 AM PDT (4/17)
Length of Visible Light 14h 03m
Length of Day
13h 10m
Waxing Crescent, 43% of the Moon is Illuminated
Apr 17
Waxing Crescent
Apr 18
First Quarter
Apr 25
Full
May 2
Last Quarter
May 9
New

Hourly Weather History & Observations

Time (PDT) Temp. Windchill Dew Point Humidity Pressure Visibility Wind Dir Wind Speed Gust Speed Precip Events Conditions
12:53 AM 46.0 °F 43.9 °F 33.1 °F 61% 30.09 in 10.0 mi North 4.6 mph - N/A   Clear
1:53 AM 46.9 °F - 33.1 °F 59% 30.09 in 10.0 mi North 10.4 mph - N/A   Clear
2:53 AM 44.1 °F - 33.1 °F 65% 30.10 in 10.0 mi Calm Calm - N/A   Clear
3:53 AM 39.9 °F 37.8 °F 30.9 °F 70% 30.11 in 10.0 mi SSW 3.5 mph - N/A   Clear
4:53 AM 41.0 °F - 32.0 °F 70% 30.12 in 10.0 mi Calm Calm - N/A   Clear
5:53 AM 37.9 °F 35.5 °F 30.9 °F 76% 30.13 in 10.0 mi SW 3.5 mph - N/A   Clear
7:53 AM 46.0 °F 44.8 °F 33.1 °F 61% 30.19 in 10.0 mi North 3.5 mph - N/A   Clear
8:53 AM 52.0 °F - 30.9 °F 45% 30.19 in 10.0 mi NW 10.4 mph - N/A   Clear
9:53 AM 57.9 °F - 27.0 °F 31% 30.19 in 10.0 mi NW 12.7 mph - N/A   Clear
10:53 AM 62.1 °F - 24.1 °F 23% 30.18 in 10.0 mi NW 12.7 mph - N/A   Clear
11:53 AM 66.0 °F - 21.9 °F 19% 30.17 in 10.0 mi NW 18.4 mph - N/A   Clear
12:53 PM 66.9 °F - 21.0 °F 17% 30.15 in 10.0 mi NNW 11.5 mph 23.0 mph N/A   Clear
1:53 PM 70.0 °F - 18.0 °F 14% 30.13 in 10.0 mi NE 10.4 mph - N/A   Clear
2:53 PM 71.1 °F - 16.0 °F 12% 30.12 in 10.0 mi North 15.0 mph 18.4 mph N/A   Clear
3:53 PM 72.0 °F - 17.1 °F 12% 30.10 in 10.0 mi WNW 13.8 mph 19.6 mph N/A   Clear
4:53 PM 72.0 °F - 19.0 °F 13% 30.09 in 10.0 mi NNW 13.8 mph - N/A   Clear
5:53 PM 71.1 °F - 21.0 °F 15% 30.10 in 10.0 mi North 17.3 mph - N/A   Clear
6:53 PM 66.9 °F - 23.0 °F 19% 30.12 in 10.0 mi NNW 16.1 mph - N/A   Clear
7:53 PM 63.0 °F - 25.0 °F 24% 30.13 in 10.0 mi NNW 15.0 mph - N/A   Clear
8:53 PM 57.9 °F - 24.1 °F 27% 30.17 in 10.0 mi NNW 4.6 mph - N/A   Clear
9:53 PM 55.9 °F - 26.1 °F 32% 30.19 in 10.0 mi NNW 9.2 mph - N/A   Clear
10:53 PM 53.1 °F - 30.0 °F 41% 30.21 in 10.0 mi NW 13.8 mph - N/A   Clear
11:53 PM 51.1 °F - 30.9 °F 46% 30.21 in 10.0 mi NNW 6.9 mph - N/A   Clear